BAW12TB KTPA-EGKK

Flight info

Callsign BAW12TB
Flight time N/A
Altitude 37000
Route BAYPO2 CAMJO Q99 POLYY DCT DADDS Q87 GEARS DCT BBOBO Q22 LLUND/N0478F390 Q22 FOXWD DCT ALLEX N431B ELSIR/M084F390 DCT 50N050W 52N040W 53N030W 53N020W DCT MALOT/N0480F390 DCT GISTI/N0483F410 DCT NORLA DCT PEWBI DCT TACQI DCT FONZU DCT ELRIP DCT OTMET
Aircraft B772/H-SDE2E3FGHIJ5LORVWXY/LB1D1

Departure

Time 2026-05-04 20:35
Airport Tampa International Airport (KTPA)

Arrival

Time N/A
Airport London Gatwick Airport (EGKK)
Time Latitude Longitude Altitude Speed Heading
2026-05-04 20:11 27.97539 -82.53612 47 ft 0 kts 349°
2026-05-04 20:24 27.97538 -82.53612 46 ft 1 kts 349°
2026-05-04 20:25 27.97516 -82.53607 46 ft 4 kts 349°
2026-05-04 20:25 27.97493 -82.53609 44 ft 4 kts 31°
2026-05-04 20:25 27.97476 -82.53621 47 ft 4 kts 38°
2026-05-04 20:25 27.97458 -82.53641 43 ft 4 kts 56°
2026-05-04 20:26 27.97448 -82.53665 44 ft 4 kts 82°
2026-05-04 20:26 27.97449 -82.53693 44 ft 4 kts 109°
2026-05-04 20:26 27.97460 -82.53718 43 ft 4 kts 127°
2026-05-04 20:26 27.97477 -82.53740 44 ft 4 kts 137°
2026-05-04 20:27 27.97496 -82.53758 47 ft 4 kts 143°
2026-05-04 20:27 27.97516 -82.53775 47 ft 4 kts 143°
2026-05-04 20:27 27.97536 -82.53793 46 ft 4 kts 129°
2026-05-04 20:27 27.97539 -82.53798 45 ft 1 kts 122°
2026-05-04 20:30 27.97536 -82.53792 46 ft 7 kts 123°
2026-05-04 20:30 27.97509 -82.53783 44 ft 7 kts 189°
2026-05-04 20:30 27.97469 -82.53819 51 ft 7 kts 238°
2026-05-04 20:31 27.97484 -82.53874 49 ft 9 kts 305°
2026-05-04 20:31 27.97511 -82.53937 50 ft 9 kts 286°
2026-05-04 20:31 27.97518 -82.54006 51 ft 9 kts 275°
2026-05-04 20:31 27.97497 -82.54066 47 ft 9 kts 205°
2026-05-04 20:32 27.97434 -82.54074 49 ft 9 kts 181°
2026-05-04 20:32 27.97368 -82.54076 50 ft 13 kts 182°
2026-05-04 20:32 27.97210 -82.54082 50 ft 26 kts 182°
2026-05-04 20:32 27.97033 -82.54088 48 ft 25 kts 181°
2026-05-04 20:33 27.96861 -82.54094 47 ft 25 kts 181°
2026-05-04 20:33 27.96688 -82.54099 50 ft 25 kts 181°
2026-05-04 20:33 27.96546 -82.54103 50 ft 8 kts 181°
2026-05-04 20:33 27.96489 -82.54106 50 ft 8 kts 182°
2026-05-04 20:34 27.96444 -82.54110 51 ft 4 kts 197°
2026-05-04 20:34 27.96435 -82.54118 51 ft 0 kts 228°
2026-05-04 20:34 27.96421 -82.54163 52 ft 12 kts 263°
2026-05-04 20:34 27.96461 -82.54229 49 ft 11 kts 344°
2026-05-04 20:35 27.96605 -82.54227 51 ft 48 kts
2026-05-04 20:35 27.97189 -82.54208 50 ft 119 kts
2026-05-04 20:35 27.98234 -82.54179 92 ft 173 kts
2026-05-04 20:35 27.99434 -82.54177 764 ft 176 kts
2026-05-04 20:36 28.00658 -82.54217 1468 ft 180 kts
2026-05-04 20:36 28.02015 -82.54250 1736 ft 209 kts
2026-05-04 20:36 28.03563 -82.54283 1957 ft 235 kts
2026-05-04 20:36 28.05281 -82.54320 2285 ft 255 kts
2026-05-04 20:37 28.07061 -82.54355 2831 ft 263 kts
2026-05-04 20:37 28.08893 -82.54399 3562 ft 264 kts
2026-05-04 20:37 28.10738 -82.54444 4241 ft 267 kts
2026-05-04 20:37 28.12615 -82.54479 4902 ft 271 kts
2026-05-04 20:38 28.14519 -82.54515 5560 ft 275 kts
2026-05-04 20:38 28.16452 -82.54553 6172 ft 276 kts 355°
2026-05-04 20:38 28.18239 -82.55252 6637 ft 281 kts 322°
2026-05-04 20:38 28.19473 -82.56941 7206 ft 276 kts 301°
2026-05-04 20:39 28.20721 -82.58598 7534 ft 284 kts 327°
2026-05-04 20:39 28.22562 -82.59379 8059 ft 285 kts 346°
2026-05-04 20:39 28.24552 -82.59586 8487 ft 292 kts
2026-05-04 20:39 28.26567 -82.59342 9022 ft 295 kts
2026-05-04 20:40 28.28614 -82.59021 9626 ft 297 kts
2026-05-04 20:40 28.30677 -82.58736 10119 ft 300 kts
2026-05-04 20:40 28.32807 -82.58476 10324 ft 316 kts
2026-05-04 20:40 28.35029 -82.58223 10457 ft 333 kts
2026-05-04 20:41 28.37405 -82.58035 10595 ft 351 kts 359°
2026-05-04 20:41 28.39920 -82.58053 10748 ft 370 kts 356°
2026-05-04 20:41 28.42535 -82.58150 11222 ft 381 kts 355°
2026-05-04 20:41 28.45217 -82.58255 11889 ft 387 kts 356°
2026-05-04 20:42 28.47929 -82.58349 12759 ft 388 kts 356°
2026-05-04 20:42 28.50642 -82.58430 13587 ft 391 kts 356°
2026-05-04 20:42 28.53369 -82.58504 14261 ft 395 kts 356°
2026-05-04 20:42 28.56101 -82.58575 14861 ft 400 kts 356°
2026-05-04 20:43 28.58901 -82.58645 15475 ft 404 kts 356°
2026-05-04 20:43 28.61725 -82.58715 16104 ft 408 kts 355°
2026-05-04 20:43 28.64581 -82.58787 16707 ft 411 kts 355°
2026-05-04 20:43 28.67462 -82.58884 17300 ft 414 kts 353°
2026-05-04 20:44 28.70340 -82.59193 17866 ft 416 kts 349°
2026-05-04 20:44 28.73194 -82.59598 18385 ft 420 kts 348°
2026-05-04 20:44 28.76104 -82.60038 18889 ft 423 kts 348°
2026-05-04 20:44 28.79038 -82.60480 19402 ft 424 kts 348°
2026-05-04 20:45 28.81972 -82.60912 19940 ft 426 kts 348°
2026-05-04 20:45 28.84924 -82.61337 20429 ft 428 kts 348°
2026-05-04 20:45 28.87863 -82.61754 20901 ft 431 kts 348°
2026-05-04 20:45 28.90861 -82.62176 21370 ft 434 kts 348°
2026-05-04 20:46 28.93870 -82.62597 21831 ft 436 kts 348°
2026-05-04 20:46 28.96905 -82.63020 22294 ft 439 kts 348°
2026-05-04 20:46 28.99953 -82.63446 22742 ft 441 kts 347°
2026-05-04 20:46 29.02978 -82.63869 23187 ft 444 kts 347°
2026-05-04 20:47 29.06064 -82.64301 23653 ft 446 kts 347°
2026-05-04 20:47 29.09164 -82.64736 24023 ft 449 kts 347°
2026-05-04 20:47 29.12275 -82.65172 24400 ft 451 kts 347°
2026-05-04 20:47 29.15361 -82.65605 24777 ft 453 kts 347°
2026-05-04 20:48 29.18498 -82.66045 25145 ft 455 kts 347°
2026-05-04 20:48 29.21651 -82.66488 25508 ft 457 kts 347°
2026-05-04 20:48 29.24812 -82.66933 25863 ft 459 kts 347°
2026-05-04 20:48 29.27990 -82.67380 26223 ft 461 kts 347°
2026-05-04 20:49 29.31186 -82.67830 26577 ft 463 kts 347°
2026-05-04 20:49 29.34400 -82.68282 26966 ft 465 kts 347°
2026-05-04 20:49 29.37584 -82.68731 27304 ft 467 kts 347°
2026-05-04 20:49 29.40843 -82.69182 27650 ft 470 kts 347°
2026-05-04 20:50 29.44131 -82.69408 27963 ft 477 kts 353°
2026-05-04 20:50 29.47466 -82.69380 28274 ft 480 kts 354°
2026-05-04 20:50 29.50786 -82.69328 28582 ft 482 kts 354°
2026-05-04 20:50 29.54158 -82.69278 28879 ft 484 kts 354°
2026-05-04 20:51 29.57541 -82.69237 29152 ft 486 kts 354°
2026-05-04 20:51 29.60935 -82.69205 29434 ft 488 kts 354°
2026-05-04 20:51 29.64340 -82.69180 29744 ft 489 kts 353°
2026-05-04 20:51 29.67758 -82.69159 29977 ft 491 kts 353°
2026-05-04 20:52 29.71144 -82.69140 30183 ft 493 kts 353°
2026-05-04 20:52 29.74549 -82.69338 30265 ft 484 kts 343°
2026-05-04 20:52 29.79666 -82.71532 30446 ft 462 kts 326°
2026-05-04 20:53 29.83743 -82.73206 30452 ft 484 kts 345°
2026-05-04 20:53 29.85997 -82.73391 30496 ft 496 kts 354°
2026-05-04 20:53 29.89469 -82.73143 30647 ft 501 kts 357°
2026-05-04 20:53 29.92953 -82.72891 30841 ft 500 kts 355°
2026-05-04 20:54 29.96432 -82.72790 31006 ft 499 kts 353°
2026-05-04 20:54 29.99915 -82.72774 31177 ft 499 kts 353°
2026-05-04 20:54 30.03399 -82.72774 31383 ft 499 kts 353°
2026-05-04 20:54 30.06870 -82.72763 31604 ft 498 kts 353°
2026-05-04 20:55 30.10344 -82.72743 31841 ft 498 kts 353°
2026-05-04 20:55 30.13775 -82.72720 32057 ft 498 kts 353°
2026-05-04 20:55 30.17247 -82.72687 32266 ft 495 kts 354°
2026-05-04 20:55 30.20702 -82.72068 32311 ft 510 kts